AUA249Z LOWW-EDDK

Flight info

Callsign AUA249Z
Flight time 1h 13m
Altitude 34000
Route BUWUT1C/29 BUWUT DCT DITIS DCT RAPET T843 VELIS DCT MASEK T841 ERNEP ERNEP1F
Aircraft A20N/M-SDE2E3FGHIRWXY/LB1

Departure

Time 2026-04-30 18:14
Airport Vienna International Airport (LOWW)

Arrival

Time 2026-04-30 19:27
Airport Cologne Bonn Airport (EDDK)
Time Latitude Longitude Altitude Speed Heading
2026-04-30 17:39 48.11917 16.56717 594 ft 0 kts 206°
2026-04-30 18:03 48.11921 16.56721 594 ft 2 kts 205°
2026-04-30 18:04 48.11958 16.56745 592 ft 0 kts 206°
2026-04-30 18:05 48.11981 16.56749 590 ft 3 kts 118°
2026-04-30 18:06 48.11977 16.56760 591 ft 0 kts 117°
2026-04-30 18:09 48.11962 16.56807 592 ft 8 kts 116°
2026-04-30 18:10 48.11849 16.57198 598 ft 13 kts 101°
2026-04-30 18:11 48.11551 16.57455 600 ft 14 kts 165°
2026-04-30 18:11 48.11279 16.57305 603 ft 13 kts 206°
2026-04-30 18:12 48.11089 16.57537 599 ft 12 kts 181°
2026-04-30 18:13 48.10959 16.57405 602 ft 9 kts 281°
2026-04-30 18:13 48.11581 16.55497 632 ft 163 kts 296°
2026-04-30 18:14 48.12214 16.52198 2236 ft 173 kts 268°
2026-04-30 18:15 48.11682 16.46374 4083 ft 213 kts 278°
2026-04-30 18:15 48.12434 16.38897 5906 ft 271 kts 283°
2026-04-30 18:16 48.13032 16.33282 7770 ft 282 kts 282°
2026-04-30 18:16 48.13643 16.27442 9622 ft 291 kts 282°
2026-04-30 18:17 48.13958 16.24440 10496 ft 296 kts 284°
2026-04-30 18:17 48.14619 16.21518 11000 ft 304 kts 307°
2026-04-30 18:17 48.17951 16.17882 12574 ft 303 kts 339°
2026-04-30 18:18 48.19833 16.16540 13461 ft 306 kts 339°
2026-04-30 18:18 48.21748 16.15152 14284 ft 309 kts 339°
2026-04-30 18:18 48.23657 16.13756 15115 ft 311 kts 339°
2026-04-30 18:18 48.25614 16.12311 15923 ft 314 kts 339°
2026-04-30 18:19 48.27575 16.10857 16716 ft 317 kts 339°
2026-04-30 18:19 48.29539 16.09397 17507 ft 320 kts 340°
2026-04-30 18:19 48.31529 16.07921 18269 ft 322 kts 340°
2026-04-30 18:19 48.33544 16.06422 19005 ft 325 kts 340°
2026-04-30 18:20 48.35548 16.04930 19718 ft 328 kts 340°
2026-04-30 18:20 48.37584 16.03411 20457 ft 329 kts 340°
2026-04-30 18:20 48.39653 16.01871 21084 ft 334 kts 341°
2026-04-30 18:20 48.41754 16.00307 21700 ft 339 kts 340°
2026-04-30 18:21 48.43853 15.98740 22346 ft 343 kts 341°
2026-04-30 18:21 48.46009 15.97126 23013 ft 346 kts 341°
2026-04-30 18:21 48.48164 15.95513 23678 ft 348 kts 341°
2026-04-30 18:21 48.50305 15.93904 24307 ft 351 kts 341°
2026-04-30 18:22 48.52495 15.92264 24881 ft 355 kts 341°
2026-04-30 18:22 48.56769 15.88271 26029 ft 376 kts 327°
2026-04-30 18:22 48.58580 15.85344 26540 ft 392 kts 317°
2026-04-30 18:23 48.60165 15.81965 27096 ft 398 kts 314°
2026-04-30 18:23 48.61709 15.78500 27556 ft 402 kts 314°
2026-04-30 18:23 48.63264 15.74999 27988 ft 407 kts 314°
2026-04-30 18:23 48.64850 15.71446 28424 ft 411 kts 315°
2026-04-30 18:24 48.68077 15.64240 29265 ft 417 kts 315°
2026-04-30 18:24 48.69674 15.60631 29667 ft 421 kts 313°
2026-04-30 18:24 48.71190 15.56796 30122 ft 427 kts 310°
2026-04-30 18:25 48.72635 15.52881 30606 ft 427 kts 310°
2026-04-30 18:25 48.75478 15.45077 31441 ft 427 kts 311°
2026-04-30 18:25 48.76912 15.41145 31888 ft 425 kts 310°
2026-04-30 18:26 48.79763 15.33374 32756 ft 419 kts 311°
2026-04-30 18:26 48.81289 15.29660 33028 ft 416 kts 315°
2026-04-30 18:26 48.82933 15.26103 33284 ft 416 kts 316°
2026-04-30 18:27 48.86327 15.18974 33792 ft 420 kts 317°
2026-04-30 18:27 48.88044 15.15349 34083 ft 422 kts 317°
2026-04-30 18:28 48.91479 15.08147 34373 ft 423 kts 318°
2026-04-30 18:28 48.96754 14.97367 34381 ft 424 kts 318°
2026-04-30 18:29 49.03749 14.82995 34392 ft 423 kts 318°
2026-04-30 18:30 49.10698 14.68625 34400 ft 424 kts 318°
2026-04-30 18:31 49.15922 14.57763 34400 ft 423 kts 318°
2026-04-30 18:32 49.21102 14.46958 34399 ft 423 kts 318°
2026-04-30 18:33 49.26302 14.36064 34393 ft 422 kts 318°
2026-04-30 18:33 49.31461 14.25206 34394 ft 423 kts 317°
2026-04-30 18:34 49.36619 14.14316 34390 ft 423 kts 317°
2026-04-30 18:35 49.40063 14.07015 34390 ft 422 kts 317°
2026-04-30 18:35 49.43492 13.99727 34392 ft 423 kts 317°
2026-04-30 18:36 49.48623 13.88789 34391 ft 422 kts 316°
2026-04-30 18:37 49.53765 13.77775 34384 ft 422 kts 316°
2026-04-30 18:37 49.57207 13.70380 34378 ft 422 kts 316°
2026-04-30 18:38 49.60624 13.63022 34374 ft 422 kts 316°
2026-04-30 18:38 49.64030 13.55656 34382 ft 422 kts 316°
2026-04-30 18:39 49.67421 13.48310 34384 ft 422 kts 316°
2026-04-30 18:39 49.70451 13.40509 34390 ft 436 kts 305°
2026-04-30 18:40 49.72884 13.31910 34394 ft 437 kts 302°
2026-04-30 18:40 49.75293 13.23303 34404 ft 436 kts 303°
2026-04-30 18:41 49.77706 13.14765 34401 ft 436 kts 303°
2026-04-30 18:41 49.80122 13.06235 34399 ft 436 kts 303°
2026-04-30 18:42 49.82555 12.97632 34390 ft 436 kts 303°
2026-04-30 18:42 49.86159 12.84833 34390 ft 435 kts 302°
2026-04-30 18:45 49.99273 12.37676 34383 ft 432 kts 301°
2026-04-30 18:46 50.01620 12.29136 34386 ft 433 kts 301°
2026-04-30 18:46 50.03959 12.20582 34386 ft 431 kts 301°
2026-04-30 18:47 50.06314 12.11951 34379 ft 432 kts 300°
2026-04-30 18:47 50.08642 12.03387 34372 ft 432 kts 300°
2026-04-30 18:48 50.10966 11.94800 34368 ft 430 kts 300°
2026-04-30 18:48 50.13274 11.86244 34372 ft 430 kts 300°
2026-04-30 18:49 50.15567 11.77716 34373 ft 430 kts 300°
2026-04-30 18:49 50.17880 11.69077 34369 ft 429 kts 300°
2026-04-30 18:50 50.20154 11.60562 34373 ft 429 kts 300°
2026-04-30 18:50 50.22439 11.51965 34365 ft 429 kts 300°
2026-04-30 18:51 50.24722 11.43339 34370 ft 429 kts 300°
2026-04-30 18:51 50.26993 11.34731 34371 ft 429 kts 299°
2026-04-30 18:52 50.29261 11.26102 34167 ft 429 kts 298°
2026-04-30 18:52 50.30380 11.21840 33900 ft 430 kts 298°
2026-04-30 18:52 50.31514 11.17504 33631 ft 431 kts 298°
2026-04-30 18:52 50.32643 11.13181 33361 ft 432 kts 298°
2026-04-30 18:53 50.33772 11.08853 33096 ft 433 kts 298°
2026-04-30 18:53 50.34909 11.04479 32829 ft 434 kts 298°
2026-04-30 18:53 50.36047 11.00102 32565 ft 436 kts 298°
2026-04-30 18:53 50.37185 10.95711 32385 ft 436 kts 298°
2026-04-30 18:54 50.38319 10.91324 32382 ft 437 kts 298°
2026-04-30 18:54 50.40598 10.82484 32379 ft 437 kts 298°
2026-04-30 18:55 50.42812 10.73693 32376 ft 438 kts 295°
2026-04-30 18:55 50.45177 10.59702 32384 ft 443 kts 288°
2026-04-30 18:56 50.47572 10.45816 32381 ft 437 kts 296°
2026-04-30 18:57 50.51256 10.32891 32376 ft 433 kts 301°
2026-04-30 18:57 50.53845 10.24334 32377 ft 434 kts 300°
2026-04-30 18:58 50.57671 10.11554 32377 ft 433 kts 300°
2026-04-30 18:59 50.61505 9.98651 32371 ft 433 kts 300°
2026-04-30 19:00 50.65290 9.85826 32243 ft 424 kts 300°
2026-04-30 19:00 50.66510 9.81679 32105 ft 420 kts 300°
2026-04-30 19:01 50.71436 9.64887 32213 ft 422 kts 300°
2026-04-30 19:02 50.75264 9.52433 32144 ft 422 kts 301°
2026-04-30 19:02 50.77994 9.43912 30595 ft 429 kts 301°
2026-04-30 19:03 50.80679 9.35476 29261 ft 429 kts 301°
2026-04-30 19:03 50.83298 9.27199 28298 ft 421 kts 300°
2026-04-30 19:04 50.85897 9.18972 27325 ft 414 kts 300°
2026-04-30 19:04 50.88438 9.10897 26383 ft 407 kts 300°
2026-04-30 19:05 50.90929 9.02959 25433 ft 402 kts 300°
2026-04-30 19:05 50.93385 8.95100 24445 ft 398 kts 300°
2026-04-30 19:06 50.95846 8.87333 23483 ft 394 kts 301°
2026-04-30 19:06 50.97092 8.83475 23014 ft 392 kts 301°
2026-04-30 19:06 50.99542 8.75849 22106 ft 388 kts 301°
2026-04-30 19:07 51.01364 8.67842 21194 ft 391 kts 277°
2026-04-30 19:07 51.01237 8.63556 20765 ft 391 kts 263°
2026-04-30 19:08 51.00245 8.55157 19867 ft 388 kts 260°
2026-04-30 19:08 50.99249 8.46797 18965 ft 385 kts 261°
2026-04-30 19:08 50.98774 8.42635 18509 ft 383 kts 261°
2026-04-30 19:09 50.97845 8.34377 17618 ft 380 kts 260°
2026-04-30 19:09 50.97429 8.30275 17149 ft 378 kts 266°
2026-04-30 19:09 50.97435 8.26125 16639 ft 377 kts 275°
2026-04-30 19:10 50.97910 8.17885 15531 ft 378 kts 277°
2026-04-30 19:10 50.98373 8.09661 14275 ft 372 kts 276°
2026-04-30 19:11 50.98578 8.05625 13770 ft 369 kts 275°
2026-04-30 19:11 50.98965 7.97543 12792 ft 365 kts 275°
2026-04-30 19:11 50.99146 7.93615 12378 ft 361 kts 275°
2026-04-30 19:12 50.99326 7.89634 11994 ft 356 kts 275°
2026-04-30 19:12 50.99500 7.85764 11639 ft 350 kts 275°
2026-04-30 19:12 50.99669 7.81976 11307 ft 342 kts 275°
2026-04-30 19:13 50.99987 7.74764 10503 ft 317 kts 274°
2026-04-30 19:13 51.00285 7.67933 9832 ft 304 kts 274°
2026-04-30 19:13 51.00426 7.64672 9605 ft 297 kts 274°
2026-04-30 19:14 51.00566 7.61395 9372 ft 295 kts 274°
2026-04-30 19:14 51.00703 7.58160 9136 ft 295 kts 274°
2026-04-30 19:14 51.00839 7.54934 8791 ft 294 kts 274°
2026-04-30 19:14 51.00976 7.51698 8434 ft 293 kts 274°
2026-04-30 19:15 51.01111 7.48494 8084 ft 291 kts 274°
2026-04-30 19:15 51.01371 7.42164 7395 ft 288 kts 273°
2026-04-30 19:15 51.01500 7.39008 7036 ft 287 kts 273°
2026-04-30 19:16 51.01629 7.35830 6699 ft 285 kts 273°
2026-04-30 19:16 51.01752 7.32775 6388 ft 275 kts 272°
2026-04-30 19:16 51.01990 7.26836 5737 ft 269 kts 272°
2026-04-30 19:17 51.02107 7.23873 5370 ft 270 kts 271°
2026-04-30 19:17 51.02338 7.17978 4672 ft 268 kts 271°
2026-04-30 19:17 51.02453 7.15011 4311 ft 267 kts 271°
2026-04-30 19:18 51.02967 7.10230 3758 ft 268 kts 289°
2026-04-30 19:18 51.04053 7.06654 3309 ft 268 kts 300°
2026-04-30 19:18 51.04985 7.04132 3045 ft 264 kts 301°
2026-04-30 19:19 51.05909 7.01687 2990 ft 252 kts 301°
2026-04-30 19:19 51.06792 6.99370 2977 ft 237 kts 301°
2026-04-30 19:19 51.07484 6.94662 3056 ft 220 kts 247°
2026-04-30 19:20 51.06712 6.92667 3021 ft 208 kts 217°
2026-04-30 19:20 51.05528 6.91494 3010 ft 197 kts 195°
2026-04-30 19:20 51.03000 6.91533 2990 ft 176 kts 147°
2026-04-30 19:21 51.02039 6.92596 2978 ft 161 kts 137°
2026-04-30 19:21 51.00412 6.95006 2985 ft 159 kts 134°
2026-04-30 19:22 50.98943 6.97177 2984 ft 137 kts 134°
2026-04-30 19:22 50.96847 7.00210 2537 ft 135 kts 134°
2026-04-30 19:23 50.94773 7.03193 2014 ft 134 kts 135°
2026-04-30 19:24 50.93394 7.05176 1662 ft 133 kts 135°
2026-04-30 19:24 50.92706 7.06167 1484 ft 133 kts 134°
2026-04-30 19:24 50.91351 7.08125 1124 ft 132 kts 137°
2026-04-30 19:25 50.89326 7.11069 612 ft 131 kts 137°
2026-04-30 19:26 50.87996 7.12982 281 ft 127 kts 136°
2026-04-30 19:26 50.86957 7.14493 262 ft 59 kts 136°
2026-04-30 19:26 50.86671 7.14906 274 ft 51 kts 138°
2026-04-30 19:27 50.86241 7.15329 284 ft 17 kts 167°
2026-04-30 19:27 50.86094 7.15344 285 ft 9 kts 210°
2026-04-30 19:28 50.86046 7.15259 284 ft 12 kts 256°
2026-04-30 19:28 50.86138 7.14998 282 ft 15 kts 318°
2026-04-30 19:29 50.86319 7.14738 277 ft 20 kts 317°
2026-04-30 19:29 50.86431 7.14579 272 ft 22 kts 318°
2026-04-30 19:30 50.86701 7.14190 260 ft 10 kts 317°
2026-04-30 19:30 50.86849 7.14031 256 ft 15 kts 319°
2026-04-30 19:31 50.87032 7.13768 251 ft 19 kts 316°
2026-04-30 19:31 50.87136 7.13616 248 ft 21 kts 317°
2026-04-30 19:31 50.87360 7.13290 246 ft 21 kts 317°
2026-04-30 19:32 50.87471 7.13131 246 ft 21 kts 318°
2026-04-30 19:32 50.87578 7.12978 247 ft 20 kts 318°
2026-04-30 19:32 50.87667 7.12847 249 ft 16 kts 317°
2026-04-30 19:32 50.87744 7.12737 249 ft 12 kts 317°
2026-04-30 19:33 50.87773 7.12647 249 ft 7 kts 271°
2026-04-30 19:33 50.87767 7.12601 248 ft 7 kts 251°
2026-04-30 19:33 50.87745 7.12511 245 ft 10 kts 278°
2026-04-30 19:33 50.87762 7.12426 242 ft 5 kts 288°
2026-04-30 19:34 50.87766 7.12408 241 ft 0 kts 288°